YUZGU 7 (RS1S) (53309 NORAD) Tracking and Keplerian Element Data

This shows tracking and keplerian element data for the satellite.

Feedback or suggestion? Click here.




ElementValue
Catalog53309
NameYUZGU 7 (RS1S)
Epoch Orbit2762
Epoch Day14.25034897
Epoch Year2023
RAAN354.9179
Inclination51.6288
Eccentricity0.0006141
Argument of Perigee83.8883
Mean Anonmoly276.2823
Mean Motion15.90809712
Decay Rate0.00693426
L11 53309U 98067TU 23014.25034897 .00693426 20213-3 21763-2 0 9990
L22 53309 51.6288 354.9179 0006141 83.8883 276.2823 15.90809712 27629



Live tracking and technical data element details for YUZGU 7 (RS1S) (NORAD 53309). YUZGU 7 (RS1S) can be tracked NOW for your location showing map with azimuth and elevation plus other details from your city location.







IsCatalogInMostPopularTable: catalog: 53309, numindb: 45
Update: records affected: 1



GetName: 53309 YUZGU 7 (RS1S)

Hit Count: updated at: Thu, 23 Jan 2025 18:14:29 GMT